Preview of NWS' New Version of Forecast
This preview is not operational and should not be used for support decisions.

Regional Weather Roundup (RWR)

Issued by National Weather Service (NWS)

                            
000
ASCA42 TJSJ 231910
RWRPR 
PUERTO RICO/U.S. VIRGIN ISLANDS HOURLY WEATHER ROUNDUP
NATIONAL WEATHER SERVICE SAN JUAN PR
300 PM AST SAT FEB 23 2019

PRZ001>002-007>008-010-232000-
PUERTO RICO
  
CITY           SKY/WX    TMP DP  RH WIND       PRES   REMARKS
SAN JUAN LMM   MOSUNNY   84  66  54 E17       30.10F                  
AGUADILLA      SUNNY     82 N/A N/A E21G30    30.11F                  
CEIBA            N/A     79  70  73 NE6       30.12                   
$$

VIZ001>002-232000-
U.S. VIRGIN ISLANDS
  
CITY           SKY/WX    TMP DP  RH WIND       PRES   REMARKS
CHARLOTTE AMA  CLOUDY    82  66  57 E10       30.09F                  
CHRISTIANSTED  MOSUNNY   84  64  51 E16       30.09F                  
$$

HOURLY WEATHER ROUNDUP FOR THE NEWS MEDIA
  
CITY           SKY/WX    TMP DP  RH WIND       PRES   REMARKS
ORLANDO        FAIR      87  64  46 S18       30.08F                  
NEW YORK       CLOUDY    39  30  70 SE3       30.41F                  
NEWARK         CLOUDY    40  25  55 E5        30.40F                  
CHICAGO        LGT RAIN  36  33  89 E12       29.85F FOG     WCI  28  
HARTFORD       FAIR      40  27  59 S9        30.40F WCI  34          
BOSTON         CLOUDY    37  24  59 E5        30.41F WCI  33          
DALLAS         CLOUDY    67  29  24 W17G25    29.80F                  
PHILADELPHIA   CLOUDY    42  27  55 E3        30.38F                  
LOS ANGELES    MOSUNNY   58  35  42 SW3       30.32F                  
WASHINGTON DC  LGT RAIN  38  33  82 E7        30.32F WCI  33